Year,Month,Day,Hour,Minute,Value (Times are PST for temperature in C)
2006,09,15,00,04,11.20
2006,09,15,00,05,11.20
2006,09,15,00,06,11.20
2006,09,15,00,07,11.20
2006,09,15,00,08,11.20
2006,09,15,00,09,11.20
2006,09,15,00,10,11.20
2006,09,15,00,12,11.20
2006,09,15,00,13,11.20
2006,09,15,00,14,11.20
2006,09,15,00,15,11.20
2006,09,15,00,16,11.20
2006,09,15,00,17,11.20
2006,09,15,00,18,11.20
2006,09,15,00,19,11.20
2006,09,15,00,20,11.20
2006,09,15,00,21,11.20
2006,09,15,00,22,11.20
2006,09,15,00,23,11.20
2006,09,15,00,24,11.00
2006,09,15,00,25,11.00
2006,09,15,00,26,11.00
2006,09,15,00,27,11.00
2006,09,15,00,28,11.00
2006,09,15,00,29,11.00
2006,09,15,00,30,11.00
2006,09,15,00,32,11.00
2006,09,15,00,33,11.00
2006,09,15,00,34,11.00
2006,09,15,00,35,10.60
2006,09,15,00,36,10.60
2006,09,15,00,37,10.60
2006,09,15,00,38,10.60
2006,09,15,00,39,10.60
2006,09,15,00,40,10.60
2006,09,15,00,41,10.60
2006,09,15,00,42,10.60
2006,09,15,00,43,10.60
2006,09,15,00,44,10.70
2006,09,15,00,45,10.70
2006,09,15,00,46,10.70
2006,09,15,00,47,10.70
2006,09,15,00,48,10.70
2006,09,15,00,49,10.70
2006,09,15,00,50,10.70
2006,09,15,00,51,10.70
2006,09,15,00,52,10.70
2006,09,15,00,53,10.70
2006,09,15,00,54,10.70
2006,09,15,00,55,10.70
2006,09,15,00,56,10.70
2006,09,15,00,57,10.70
2006,09,15,00,58,10.70
2006,09,15,00,59,10.70
2006,09,15,01,00,10.70
2006,09,15,01,01,10.70
2006,09,15,01,02,10.70
2006,09,15,01,03,10.70
2006,09,15,01,04,10.60
2006,09,15,01,05,10.60
2006,09,15,01,06,10.60
2006,09,15,01,07,10.60
2006,09,15,01,08,10.60
2006,09,15,01,09,10.60
2006,09,15,01,10,10.60
2006,09,15,01,11,10.60
2006,09,15,01,12,10.60
2006,09,15,01,13,10.60
2006,09,15,01,14,10.60
2006,09,15,01,15,10.60
2006,09,15,01,16,10.60
2006,09,15,01,17,10.60
2006,09,15,01,18,10.60
2006,09,15,01,19,10.60
2006,09,15,01,20,10.60
2006,09,15,01,21,10.60
2006,09,15,01,22,10.60
2006,09,15,01,23,10.60
2006,09,15,01,24,10.60
2006,09,15,01,25,10.60
2006,09,15,01,26,10.60
2006,09,15,01,28,10.60
2006,09,15,01,29,10.60
2006,09,15,01,30,10.60
2006,09,15,01,31,10.60
2006,09,15,01,32,10.60
2006,09,15,01,33,10.60
2006,09,15,01,35,10.60
2006,09,15,01,36,10.60
2006,09,15,01,37,10.60
2006,09,15,01,38,10.60
2006,09,15,01,39,10.60
2006,09,15,01,40,10.60
2006,09,15,01,41,10.60
2006,09,15,01,42,10.60
2006,09,15,01,43,10.60
2006,09,15,01,44,10.50
2006,09,15,01,45,10.50
2006,09,15,01,46,10.50
2006,09,15,01,47,10.50
2006,09,15,01,48,10.50
2006,09,15,01,49,10.50
2006,09,15,01,50,10.50
2006,09,15,01,52,10.50
2006,09,15,01,53,10.50
2006,09,15,01,54,10.60
2006,09,15,01,55,10.60
2006,09,15,01,56,10.60
2006,09,15,01,57,10.60
2006,09,15,01,58,10.60
2006,09,15,01,59,10.60
2006,09,15,02,00,10.60
2006,09,15,02,01,10.60
2006,09,15,02,02,10.60
2006,09,15,02,03,10.60
2006,09,15,02,04,10.70
2006,09,15,02,06,10.70
2006,09,15,02,07,10.70
2006,09,15,02,09,10.70
2006,09,15,02,10,10.70
2006,09,15,02,11,10.70
2006,09,15,02,12,10.70
2006,09,15,02,13,10.70
2006,09,15,02,14,10.70
2006,09,15,02,15,10.70
2006,09,15,02,16,10.70
2006,09,15,02,17,10.70
2006,09,15,02,18,10.70
2006,09,15,02,19,10.70
2006,09,15,02,20,10.70
2006,09,15,02,21,10.70
2006,09,15,02,22,10.70
2006,09,15,02,23,10.70
2006,09,15,02,24,10.70
2006,09,15,02,25,10.70
2006,09,15,02,26,10.70
2006,09,15,02,28,10.70
2006,09,15,02,29,10.70
2006,09,15,02,30,10.70
2006,09,15,02,31,10.70
2006,09,15,02,32,10.70
2006,09,15,02,34,10.70
2006,09,15,02,35,10.80
2006,09,15,02,37,10.80
2006,09,15,02,38,10.80
2006,09,15,02,39,10.80
2006,09,15,02,40,10.80
2006,09,15,02,41,10.80
2006,09,15,02,42,10.80
2006,09,15,02,43,10.80
2006,09,15,02,44,10.70
2006,09,15,02,45,10.70
2006,09,15,02,46,10.70
2006,09,15,02,47,10.70
2006,09,15,02,48,10.70
2006,09,15,02,49,10.70
2006,09,15,02,50,10.70
2006,09,15,02,51,10.70
2006,09,15,02,52,10.70
2006,09,15,02,53,10.70
2006,09,15,02,54,10.70
2006,09,15,02,55,10.70
2006,09,15,02,56,10.70
2006,09,15,02,57,10.70
2006,09,15,02,58,10.70
2006,09,15,02,59,10.70
2006,09,15,03,00,10.70
2006,09,15,03,01,10.70
2006,09,15,03,02,10.70
2006,09,15,03,03,10.70
2006,09,15,03,04,10.80
2006,09,15,03,05,10.80
2006,09,15,03,06,10.80
2006,09,15,03,07,10.80
2006,09,15,03,08,10.80
2006,09,15,03,09,10.80
2006,09,15,03,10,10.80
2006,09,15,03,12,10.80
2006,09,15,03,13,10.80
2006,09,15,03,14,10.80
2006,09,15,03,15,10.70
2006,09,15,03,16,10.70
2006,09,15,03,17,10.70
2006,09,15,03,18,10.70
2006,09,15,03,19,10.70
2006,09,15,03,20,10.70
2006,09,15,03,21,10.70
2006,09,15,03,22,10.70
2006,09,15,03,23,10.70
2006,09,15,03,24,10.50
2006,09,15,03,25,10.50
2006,09,15,03,26,10.50
2006,09,15,03,27,10.50
2006,09,15,03,29,10.50
2006,09,15,03,30,10.50
2006,09,15,03,32,10.50
2006,09,15,03,33,10.50
2006,09,15,03,34,10.50
2006,09,15,03,35,10.50
2006,09,15,03,36,10.50
2006,09,15,03,37,10.50
2006,09,15,03,38,10.50
2006,09,15,03,39,10.50
2006,09,15,03,40,10.50
2006,09,15,03,41,10.50
2006,09,15,03,42,10.50
2006,09,15,03,43,10.50
2006,09,15,03,44,10.50
2006,09,15,03,45,10.40
2006,09,15,03,46,10.40
2006,09,15,03,47,10.40
2006,09,15,03,48,10.40
2006,09,15,03,49,10.40
2006,09,15,03,50,10.40
2006,09,15,03,51,10.40
2006,09,15,03,52,10.40
2006,09,15,03,53,10.40
2006,09,15,03,54,10.40
2006,09,15,03,55,10.40
2006,09,15,03,56,10.30
2006,09,15,03,57,10.30
2006,09,15,03,58,10.30
2006,09,15,03,59,10.30
2006,09,15,04,00,10.30
2006,09,15,04,01,10.30
2006,09,15,04,02,10.30
2006,09,15,04,03,10.30
2006,09,15,04,04,10.30
2006,09,15,04,06,10.30
2006,09,15,04,08,10.30
2006,09,15,04,09,10.30
2006,09,15,04,10,10.30
2006,09,15,04,11,10.30
2006,09,15,04,12,10.30
2006,09,15,04,13,10.30
2006,09,15,04,14,10.30
2006,09,15,04,15,10.30
2006,09,15,04,16,10.30
2006,09,15,04,17,10.30
2006,09,15,04,18,10.30
2006,09,15,04,19,10.30
2006,09,15,04,20,10.30
2006,09,15,04,21,10.30
2006,09,15,04,22,10.30
2006,09,15,04,23,10.30
2006,09,15,04,25,10.30
2006,09,15,04,26,10.20
2006,09,15,04,28,10.20
2006,09,15,04,29,10.20
2006,09,15,04,30,10.20
2006,09,15,04,31,10.20
2006,09,15,04,32,10.20
2006,09,15,04,33,10.20
2006,09,15,04,34,10.20
2006,09,15,04,35,10.20
2006,09,15,04,36,10.20
2006,09,15,04,37,10.50
2006,09,15,04,38,10.50
2006,09,15,04,39,10.50
2006,09,15,04,40,10.50
2006,09,15,04,42,10.50
2006,09,15,04,43,10.50
2006,09,15,04,44,10.50
2006,09,15,04,45,10.50
2006,09,15,04,46,10.60
2006,09,15,04,47,10.60
2006,09,15,04,48,10.60
2006,09,15,04,49,10.60
2006,09,15,04,50,10.60
2006,09,15,04,51,10.60
2006,09,15,04,52,10.60
2006,09,15,04,53,10.60
2006,09,15,04,54,10.60
2006,09,15,04,55,10.60
2006,09,15,04,56,10.60
2006,09,15,04,57,10.60
2006,09,15,04,58,10.60
2006,09,15,04,59,10.60
2006,09,15,05,00,10.60
2006,09,15,05,01,10.60
2006,09,15,05,02,10.60
2006,09,15,05,03,10.60
2006,09,15,05,04,10.60
2006,09,15,05,05,10.60
2006,09,15,05,07,10.60
2006,09,15,05,08,10.60
2006,09,15,05,09,10.60
2006,09,15,05,10,10.60
2006,09,15,05,11,10.60
2006,09,15,05,12,10.60
2006,09,15,05,13,10.60
2006,09,15,05,14,10.60
2006,09,15,05,15,10.60
2006,09,15,05,16,10.50
2006,09,15,05,17,10.50
2006,09,15,05,18,10.50
2006,09,15,05,19,10.50
2006,09,15,05,20,10.50
2006,09,15,05,21,10.50
2006,09,15,05,22,10.50
2006,09,15,05,23,10.50
2006,09,15,05,24,10.50
2006,09,15,05,25,10.50
2006,09,15,05,26,10.40
2006,09,15,05,27,10.40
2006,09,15,05,28,10.40
2006,09,15,05,29,10.40
2006,09,15,05,30,10.40
2006,09,15,05,31,10.40
2006,09,15,05,32,10.40
2006,09,15,05,34,10.40
2006,09,15,05,35,10.40
2006,09,15,05,36,10.40
2006,09,15,05,37,10.40
2006,09,15,05,38,10.40
2006,09,15,05,39,10.40
2006,09,15,05,40,10.40
2006,09,15,05,41,10.40
2006,09,15,05,43,10.40
2006,09,15,05,44,10.40
2006,09,15,05,45,10.40
2006,09,15,05,46,10.20
2006,09,15,05,47,10.20
2006,09,15,05,48,10.20
2006,09,15,05,49,10.20
2006,09,15,05,50,10.20
2006,09,15,05,51,10.20
2006,09,15,05,52,10.20
2006,09,15,05,53,10.20
2006,09,15,05,54,10.20
2006,09,15,05,55,10.20
2006,09,15,05,56,10.20
2006,09,15,05,57,10.30
2006,09,15,05,58,10.30
2006,09,15,05,59,10.30
2006,09,15,06,00,10.30
2006,09,15,06,01,10.30
2006,09,15,06,02,10.30
2006,09,15,06,03,10.30
2006,09,15,06,04,10.30
2006,09,15,06,05,10.30
2006,09,15,06,06,10.20
2006,09,15,06,07,10.20
2006,09,15,06,08,10.20
2006,09,15,06,09,10.20
2006,09,15,06,10,10.20
2006,09,15,06,11,10.20
2006,09,15,06,12,10.20
2006,09,15,06,13,10.20
2006,09,15,06,14,10.20
2006,09,15,06,15,10.20
2006,09,15,06,16,10.20
2006,09,15,06,17,10.20
2006,09,15,06,18,10.20
2006,09,15,06,19,10.20
2006,09,15,06,20,10.20
2006,09,15,06,21,10.20
2006,09,15,06,22,10.20
2006,09,15,06,23,10.20
2006,09,15,06,24,10.20
2006,09,15,06,25,10.20
2006,09,15,06,26,10.20
2006,09,15,06,27,10.20
2006,09,15,06,28,10.20
2006,09,15,06,29,10.20
2006,09,15,06,30,10.20
2006,09,15,06,31,10.20
2006,09,15,06,32,10.20
2006,09,15,06,33,10.20
2006,09,15,06,34,10.20
2006,09,15,06,35,10.20
2006,09,15,06,36,10.20
2006,09,15,06,37,10.20
2006,09,15,06,38,10.20
2006,09,15,06,39,10.20
2006,09,15,06,40,10.20
2006,09,15,06,41,10.20
2006,09,15,06,42,10.20
2006,09,15,06,43,10.20
2006,09,15,06,44,10.20
2006,09,15,06,45,10.20
2006,09,15,06,46,10.20
2006,09,15,06,47,10.20
2006,09,15,06,48,10.20
2006,09,15,06,49,10.20
2006,09,15,06,50,10.20
2006,09,15,06,51,10.20
2006,09,15,06,52,10.20
2006,09,15,06,53,10.20
2006,09,15,06,54,10.20
2006,09,15,06,55,10.20
2006,09,15,06,56,10.20
2006,09,15,06,57,10.20
2006,09,15,06,58,10.20
2006,09,15,06,59,10.20
2006,09,15,07,00,10.20
2006,09,15,07,01,10.20
2006,09,15,07,02,10.20
2006,09,15,07,03,10.20
2006,09,15,07,04,10.20
2006,09,15,07,05,10.20
2006,09,15,07,07,10.20
2006,09,15,07,08,10.20
2006,09,15,07,09,10.20
2006,09,15,07,10,10.20
2006,09,15,07,12,10.20
2006,09,15,07,13,10.20
2006,09,15,07,14,10.20
2006,09,15,07,15,10.20
2006,09,15,07,16,10.10
2006,09,15,07,17,10.10
2006,09,15,07,18,10.10
2006,09,15,07,19,10.10
2006,09,15,07,20,10.10
2006,09,15,07,21,10.10
2006,09,15,07,22,10.10
2006,09,15,07,23,10.10
2006,09,15,07,24,10.10
2006,09,15,07,25,10.10
2006,09,15,07,26,10.00
2006,09,15,07,27,10.00
2006,09,15,07,28,10.00
2006,09,15,07,29,10.00
2006,09,15,07,30,10.00
2006,09,15,07,31,10.00
2006,09,15,07,32,10.00
2006,09,15,07,33,10.00
2006,09,15,07,34,10.00
2006,09,15,07,35,10.00
2006,09,15,07,36,10.00
2006,09,15,07,37,10.00
2006,09,15,07,38,10.00
2006,09,15,07,39,10.00
2006,09,15,07,40,10.00
2006,09,15,07,41,10.00
2006,09,15,07,42,10.00
2006,09,15,07,43,10.00
2006,09,15,07,44,10.00
2006,09,15,07,45,10.00
2006,09,15,07,46,10.00
2006,09,15,07,48,10.00
2006,09,15,07,49,10.00
2006,09,15,07,50,10.00
2006,09,15,07,51,10.00
2006,09,15,07,52,10.00
2006,09,15,07,53,10.00
2006,09,15,07,54,10.00
2006,09,15,07,55,10.00
2006,09,15,07,56,10.00
2006,09,15,07,57,10.00
2006,09,15,07,58,10.00
2006,09,15,07,59,10.00
2006,09,15,08,00,10.00
2006,09,15,08,02,10.00
2006,09,15,08,03,10.00
2006,09,15,08,04,10.00
2006,09,15,08,05,10.00
2006,09,15,08,06,10.10
2006,09,15,08,07,10.10
2006,09,15,08,08,10.10
2006,09,15,08,09,10.10
2006,09,15,08,10,10.10
2006,09,15,08,11,10.10
2006,09,15,08,12,10.10
2006,09,15,08,13,10.10
2006,09,15,08,14,10.10
2006,09,15,08,15,10.10
2006,09,15,08,16,10.10
2006,09,15,08,17,10.10
2006,09,15,08,18,10.10
2006,09,15,08,19,10.10
2006,09,15,08,20,10.10
2006,09,15,08,21,10.10
2006,09,15,08,22,10.10
2006,09,15,08,23,10.10
2006,09,15,08,24,10.10
2006,09,15,08,25,10.10
2006,09,15,08,26,10.20
2006,09,15,08,27,10.20
2006,09,15,08,28,10.20
2006,09,15,08,29,10.20
2006,09,15,08,30,10.20
2006,09,15,08,31,10.20
2006,09,15,08,32,10.20
2006,09,15,08,33,10.20
2006,09,15,08,34,10.20
2006,09,15,08,35,10.20
2006,09,15,08,36,10.20
2006,09,15,08,37,10.20
2006,09,15,08,38,10.20
2006,09,15,08,39,10.20
2006,09,15,08,40,10.20
2006,09,15,08,41,10.20
2006,09,15,08,42,10.20
2006,09,15,08,43,10.20
2006,09,15,08,44,10.20
2006,09,15,08,45,10.20
2006,09,15,08,46,10.20
2006,09,15,08,47,10.40
2006,09,15,08,48,10.40
2006,09,15,08,49,10.40
2006,09,15,08,50,10.40
2006,09,15,08,51,10.40
2006,09,15,08,52,10.40
2006,09,15,08,53,10.40
2006,09,15,08,54,10.40
2006,09,15,08,55,10.40
2006,09,15,08,56,10.40
2006,09,15,08,57,10.40
2006,09,15,08,58,10.40
2006,09,15,08,59,10.40
2006,09,15,09,00,10.40
2006,09,15,09,02,10.40
2006,09,15,09,03,10.40
2006,09,15,09,04,10.40
2006,09,15,09,05,10.40
2006,09,15,09,06,10.40
2006,09,15,09,07,10.40
2006,09,15,09,08,10.70
2006,09,15,09,09,10.70
2006,09,15,09,10,10.70
2006,09,15,09,11,10.70
2006,09,15,09,12,10.70
2006,09,15,09,13,10.70
2006,09,15,09,14,10.70
2006,09,15,09,15,10.70
2006,09,15,09,16,10.70
2006,09,15,09,17,10.70
2006,09,15,09,18,10.70
2006,09,15,09,19,10.70
2006,09,15,09,20,10.70
2006,09,15,09,21,10.70
2006,09,15,09,22,10.70
2006,09,15,09,23,10.70
2006,09,15,09,24,10.70
2006,09,15,09,25,10.70
2006,09,15,09,26,10.70
2006,09,15,09,27,10.70
2006,09,15,09,28,10.70
2006,09,15,09,29,10.70
2006,09,15,09,30,10.70
2006,09,15,09,32,10.70
2006,09,15,09,33,10.70
2006,09,15,09,34,10.70
2006,09,15,09,35,10.70
2006,09,15,09,36,10.70
2006,09,15,09,37,10.70
2006,09,15,09,38,10.70
2006,09,15,09,39,10.70
2006,09,15,09,40,10.70
2006,09,15,09,41,10.70
2006,09,15,09,42,10.70
2006,09,15,09,43,10.70
2006,09,15,09,44,10.70
2006,09,15,09,45,10.70
2006,09,15,09,46,10.70
2006,09,15,09,47,10.70
2006,09,15,09,48,10.70
2006,09,15,09,49,10.70
2006,09,15,09,50,10.70
2006,09,15,09,51,10.70
2006,09,15,09,52,10.70
2006,09,15,09,53,10.70
2006,09,15,09,55,10.70
2006,09,15,09,56,10.70
2006,09,15,09,57,10.70
2006,09,15,09,58,10.70
2006,09,15,09,59,10.70
2006,09,15,10,00,10.70
2006,09,15,10,01,11.00
2006,09,15,10,02,11.00
2006,09,15,10,03,11.00
2006,09,15,10,04,11.00
2006,09,15,10,05,11.00
2006,09,15,10,06,11.00
2006,09,15,10,07,11.00
2006,09,15,10,08,11.00
2006,09,15,10,09,11.00
2006,09,15,10,10,11.00
2006,09,15,10,11,11.20
2006,09,15,10,12,11.20
2006,09,15,10,13,11.20
2006,09,15,10,14,11.20
2006,09,15,10,15,11.20
2006,09,15,10,16,11.20
2006,09,15,10,17,11.20
2006,09,15,10,18,11.20
2006,09,15,10,19,11.20
2006,09,15,10,20,11.20
2006,09,15,10,21,11.20
2006,09,15,10,22,11.20
2006,09,15,10,23,11.20
2006,09,15,10,24,11.20
2006,09,15,10,25,11.20
2006,09,15,10,26,11.20
2006,09,15,10,27,11.20
2006,09,15,10,28,11.20
2006,09,15,10,29,11.20
2006,09,15,10,30,11.20
2006,09,15,10,31,11.20
2006,09,15,10,32,11.50
2006,09,15,10,33,11.50
2006,09,15,10,34,11.50
2006,09,15,10,35,11.50
2006,09,15,10,37,11.50
2006,09,15,10,38,11.50
2006,09,15,10,39,11.50
2006,09,15,10,40,11.50
2006,09,15,10,41,11.50
2006,09,15,10,42,11.50
2006,09,15,10,43,11.90
2006,09,15,10,44,11.90
2006,09,15,10,45,11.90
2006,09,15,10,46,11.90
2006,09,15,10,47,11.90
2006,09,15,10,48,11.90
2006,09,15,10,49,11.90
2006,09,15,10,50,11.90
2006,09,15,10,51,11.90
2006,09,15,10,52,11.90
2006,09,15,10,53,11.90
2006,09,15,10,54,11.90
2006,09,15,10,55,11.90
2006,09,15,10,56,11.90
2006,09,15,10,57,11.90
2006,09,15,10,59,11.90
2006,09,15,11,00,11.90
2006,09,15,11,01,11.90
2006,09,15,11,03,11.90
2006,09,15,11,04,11.90
2006,09,15,11,05,11.90
2006,09,15,11,06,11.90
2006,09,15,11,07,11.90
